Location: Unspecified
(51.0950°N, 12.9690°E)
Time: 15:25:17
(UTC+00:00)

CSL-04 Debris - Pass Details

Date: 28 October 2021
Orbit: 827 x 847 km, 98.9° (Epoch: 26 November)

Event Time Altitude Azimuth Distance (km) Brightness Sun altitude
Exits shadow 17:41:09 24° 127° (SE) 1,660 5.3 -18.1°
Maximum altitude 17:44:06 48° 66° (ENE) 1,091 4.4 -18.5°
Drops below altitude 10° 17:49:19 10° 354° (N) 2,464 6.7 -19.4°
Sets 17:51:45 0° 349° (NNW) 3,406 7.5 -19.7°
